Time[GMT],dominant_wave_period[s](0m),mean_wave_direction[degrees](0m),max_wave_height[m](0m),significant_wave_height[m](0m),mean_wave_direction_spread[degrees](0m)
2015-04-16 12:00,8.3,98.40,1.71,0.94,31.00
2015-04-16 13:00,4.8,100.40,1.58,0.91,32.00
2015-04-16 14:00,5.1,99.40,1.55,0.97,29.00
2015-04-16 15:00,9.1,97.40,1.42,0.94,31.00
2015-04-16 16:00,5.0,95.40,2.12,0.96,29.00
2015-04-16 17:00,5.4,92.40,2.02,1.02,30.00
2015-04-16 18:00,5.3,98.40,1.74,0.92,30.00
2015-04-16 19:00,5.3,95.40,1.62,0.94,31.00
2015-04-16 20:00,5.3,98.40,1.50,0.99,28.00
2015-04-16 21:00,5.1,95.40,1.95,1.06,31.00
2015-04-16 22:00,8.7,94.40,1.72,1.08,30.00
2015-04-16 23:00,4.4,93.40,1.54,0.99,32.00
2015-04-17 00:00,5.3,95.40,1.63,0.98,31.00
2015-04-17 01:00,5.0,96.40,1.66,1.02,29.00
2015-04-17 02:00,5.6,96.40,1.74,1.03,30.00
2015-04-17 03:00,5.3,94.40,1.91,1.02,29.00
2015-04-17 04:00,,,,,
2015-04-17 05:00,4.8,98.40,1.54,0.94,32.00
2015-04-17 06:00,5.7,96.40,1.83,1.04,28.00
2015-04-17 07:00,5.3,96.40,1.73,1.02,31.00
2015-04-17 08:00,5.6,98.40,1.68,1.00,31.00
2015-04-17 09:00,5.6,102.40,1.49,0.94,32.00
2015-04-17 10:00,5.4,101.40,1.77,1.00,31.00
2015-04-17 11:00,5.4,102.40,1.70,1.00,33.00
2015-04-17 12:00,5.0,100.40,1.71,1.00,33.00
2015-04-17 13:00,5.4,104.40,1.73,1.06,33.00
2015-04-17 14:00,5.0,102.40,2.65,1.10,33.00
2015-04-17 15:00,5.3,103.40,1.68,1.02,31.00
2015-04-17 16:00,5.6,99.40,1.62,1.07,32.00
2015-04-17 17:00,5.9,100.40,1.80,1.08,34.00
2015-04-17 18:00,5.7,101.40,2.01,1.22,33.00
2015-04-17 19:00,5.9,99.40,2.03,1.20,30.00
2015-04-17 20:00,5.9,101.40,1.67,1.12,31.00
2015-04-17 21:00,6.3,106.40,1.81,1.08,32.00
2015-04-17 22:00,5.7,103.40,1.65,1.17,30.00
2015-04-17 23:00,5.4,104.40,1.73,1.15,31.00
2015-04-18 00:00,5.6,105.40,1.68,1.04,33.00
2015-04-18 01:00,6.3,103.40,1.79,1.10,34.00
2015-04-18 02:00,5.4,106.40,1.78,1.14,33.00
2015-04-18 03:00,6.1,106.40,1.91,1.09,32.00
2015-04-18 04:00,5.1,106.40,2.06,1.09,32.00
2015-04-18 05:00,5.3,104.40,1.73,1.05,33.00
2015-04-18 06:00,4.5,102.40,1.70,1.08,33.00
2015-04-18 07:00,5.3,105.40,1.79,1.03,32.00
2015-04-18 08:00,5.1,108.40,1.72,1.12,33.00
2015-04-18 09:00,5.7,111.40,1.83,1.10,30.00
2015-04-18 10:00,5.7,115.40,1.90,1.07,30.00
2015-04-18 11:00,5.6,110.40,1.53,1.07,33.00
2015-04-18 12:00,6.3,110.40,1.86,1.09,33.00
2015-04-18 13:00,5.6,116.40,1.68,1.03,34.00
2015-04-18 14:00,5.6,117.40,1.95,1.10,32.00
2015-04-18 15:00,,,,,
2015-04-18 16:00,6.5,118.40,1.85,1.07,32.00
2015-04-18 17:00,5.6,117.40,1.64,1.03,35.00
2015-04-18 18:00,5.6,113.40,1.50,1.00,35.00
2015-04-18 19:00,5.6,112.40,1.63,1.01,32.00
2015-04-18 20:00,5.4,111.40,1.60,0.97,33.00
2015-04-18 21:00,6.1,113.40,1.55,1.02,33.00
2015-04-18 22:00,5.4,111.40,1.63,1.05,33.00
2015-04-18 23:00,5.9,108.40,1.81,1.05,33.00
2015-04-19 00:00,5.6,109.40,1.69,1.05,33.00
2015-04-19 01:00,5.7,110.40,2.05,1.02,32.00
2015-04-19 02:00,5.9,109.40,1.61,1.07,31.00
2015-04-19 03:00,5.6,109.40,1.69,1.09,33.00
2015-04-19 04:00,5.9,107.40,1.87,1.02,33.00
2015-04-19 05:00,5.9,112.40,1.63,1.06,33.00
2015-04-19 06:00,5.6,108.40,1.55,1.07,33.00
2015-04-19 07:00,5.9,107.40,1.60,0.99,33.00
2015-04-19 08:00,5.7,110.40,1.72,1.03,34.00
2015-04-19 09:00,6.3,111.40,1.74,1.04,33.00
2015-04-19 10:00,6.3,108.40,1.74,1.10,32.00
2015-04-19 11:00,5.9,103.40,1.66,1.12,34.00
2015-04-19 12:00,6.1,110.40,1.94,1.13,32.00
2015-04-19 13:00,6.1,112.40,1.53,1.07,32.00
2015-04-19 14:00,5.6,111.40,1.74,1.11,35.00
2015-04-19 15:00,6.1,110.40,1.51,0.99,35.00
2015-04-19 16:00,15.4,112.40,1.84,1.17,33.00
2015-04-19 17:00,5.6,116.40,1.75,0.98,36.00
2015-04-19 18:00,5.7,113.40,1.72,1.01,35.00
2015-04-19 19:00,6.1,112.40,1.50,0.93,35.00
2015-04-19 20:00,5.7,112.40,1.63,0.98,33.00
2015-04-19 21:00,5.6,110.40,1.45,0.99,33.00
2015-04-19 22:00,5.1,110.40,1.41,0.95,35.00
2015-04-19 23:00,5.9,107.40,1.54,1.00,36.00
2015-04-20 00:00,5.6,111.40,1.48,1.01,37.00
2015-04-20 01:00,5.7,111.40,1.53,0.95,38.00
2015-04-20 02:00,5.4,113.40,1.56,0.95,37.00
2015-04-20 03:00,5.4,111.40,1.74,1.01,35.00
2015-04-20 04:00,5.3,112.40,1.54,0.99,35.00
2015-04-20 05:00,5.4,112.40,1.54,1.00,36.00
2015-04-20 06:00,5.3,110.40,1.52,1.02,34.00
2015-04-20 07:00,5.4,112.40,1.80,1.01,37.00
2015-04-20 08:00,6.5,111.40,1.69,1.01,37.00
2015-04-20 09:00,5.9,110.40,1.91,1.00,35.00
2015-04-20 10:00,5.4,109.40,1.85,1.03,33.00
2015-04-20 11:00,5.0,110.40,1.48,1.01,34.00
2015-04-20 12:00,5.9,108.40,1.74,1.05,33.00
2015-04-20 13:00,5.7,111.40,1.87,1.07,34.00
2015-04-20 14:00,5.7,112.40,1.63,1.00,36.00
2015-04-20 15:00,5.9,112.40,1.94,1.04,35.00
2015-04-20 16:00,5.7,111.40,1.64,0.97,35.00
2015-04-20 17:00,5.7,112.40,1.39,0.93,35.00
2015-04-20 18:00,5.4,113.40,1.62,0.95,31.00
2015-04-20 19:00,5.0,112.40,1.62,0.92,35.00
2015-04-20 20:00,,,,,
2015-04-20 21:00,5.9,112.40,1.51,0.90,36.00
2015-04-20 22:00,5.0,110.40,1.62,0.91,35.00
2015-04-20 23:00,4.9,111.40,1.37,0.91,36.00
2015-04-21 00:00,5.7,109.40,1.46,0.90,36.00
2015-04-21 01:00,8.3,110.40,1.43,0.92,34.00
2015-04-21 02:00,5.7,110.40,1.79,0.90,36.00
2015-04-21 03:00,4.7,108.40,1.77,0.92,36.00
2015-04-21 04:00,5.7,109.40,1.32,0.90,34.00
2015-04-21 05:00,4.1,108.40,1.49,0.91,34.00
2015-04-21 06:00,5.0,113.40,1.47,0.97,33.00
2015-04-21 07:00,5.6,108.40,1.35,0.92,36.00
2015-04-21 08:00,5.3,110.40,1.49,0.98,34.00
2015-04-21 09:00,5.3,110.40,1.85,1.06,33.00
2015-04-21 10:00,5.4,109.40,1.57,1.05,32.00
2015-04-21 11:00,5.4,111.40,1.86,1.11,31.00
2015-04-21 12:00,4.9,111.40,1.68,1.06,33.00
2015-04-21 13:00,5.6,113.40,1.77,1.03,33.00
2015-04-21 14:00,5.1,114.40,1.73,1.02,33.00
2015-04-21 15:00,6.1,116.40,1.78,1.12,35.00
2015-04-21 16:00,5.1,113.40,1.56,0.98,36.00
2015-04-21 17:00,5.9,114.40,1.60,0.93,35.00
2015-04-21 18:00,5.7,115.40,2.14,0.99,35.00
2015-04-21 19:00,5.9,115.40,1.55,0.95,31.00
2015-04-21 20:00,5.6,114.40,1.46,0.95,33.00
2015-04-21 21:00,5.3,111.40,1.68,1.01,34.00
2015-04-21 22:00,5.4,104.40,1.81,1.07,35.00
2015-04-21 23:00,5.7,105.40,1.38,0.91,38.00
2015-04-22 00:00,5.1,103.40,1.71,1.03,33.00
2015-04-22 01:00,5.7,103.40,1.78,0.95,36.00
2015-04-22 02:00,5.7,103.40,1.80,1.00,33.00
2015-04-22 03:00,5.6,102.40,1.64,0.99,31.00
2015-04-22 04:00,5.0,100.40,1.35,0.92,34.00
2015-04-22 05:00,5.4,107.40,1.55,0.97,32.00
2015-04-22 06:00,5.3,105.40,1.52,0.94,33.00
2015-04-22 07:00,5.3,109.40,1.87,0.95,32.00
2015-04-22 08:00,5.4,107.40,1.58,0.98,30.00
2015-04-22 09:00,5.3,107.40,1.55,0.95,31.00
2015-04-22 10:00,5.0,106.40,1.69,1.07,31.00
2015-04-22 11:00,4.7,106.40,1.62,0.98,31.00
2015-04-22 12:00,5.6,107.40,1.52,0.98,34.00
2015-04-22 13:00,5.3,106.40,2.05,1.02,32.00
2015-04-22 14:00,5.3,108.40,1.89,1.08,32.00
2015-04-22 15:00,5.3,110.40,1.86,1.11,31.00
2015-04-22 16:00,5.4,111.40,1.75,1.11,32.00
2015-04-22 17:00,5.3,111.40,1.96,1.07,31.00
2015-04-22 18:00,5.9,114.40,1.64,1.07,32.00
2015-04-22 19:00,5.9,118.40,1.74,1.08,32.00
2015-04-22 20:00,5.6,117.40,1.44,0.95,33.00
2015-04-22 21:00,5.7,118.40,1.79,1.05,31.00
2015-04-22 22:00,5.6,111.40,1.49,0.93,32.00
2015-04-22 23:00,5.6,111.40,1.56,0.90,34.00
2015-04-23 00:00,6.1,116.40,1.83,0.93,35.00
2015-04-23 01:00,5.9,108.40,1.49,1.02,35.00
2015-04-23 02:00,5.4,110.40,1.94,1.02,32.00
2015-04-23 03:00,5.3,105.40,1.58,0.97,33.00
2015-04-23 04:00,5.4,104.40,1.90,0.98,34.00
2015-04-23 05:00,5.9,104.40,1.48,0.96,31.00
2015-04-23 06:00,6.3,105.40,1.37,0.95,33.00
2015-04-23 07:00,5.3,109.40,1.76,0.98,35.00
2015-04-23 08:00,7.1,107.40,1.65,0.98,35.00
2015-04-23 09:00,5.6,113.40,1.53,0.97,37.00
2015-04-23 10:00,5.0,114.40,1.62,1.04,35.00
2015-04-23 11:00,5.6,113.40,1.79,1.02,34.00
2015-04-23 12:00,5.9,109.40,1.44,0.98,34.00
2015-04-23 13:00,5.4,108.40,1.55,0.95,31.00
2015-04-23 14:00,4.7,107.40,1.96,1.00,30.00
2015-04-23 15:00,5.1,110.40,1.35,0.98,32.00
2015-04-23 16:00,4.8,105.40,1.62,0.95,32.00
2015-04-23 17:00,5.6,107.40,1.59,0.91,32.00
2015-04-23 18:00,5.1,112.40,1.51,0.80,33.00
2015-04-23 19:00,5.4,114.40,1.36,0.83,32.00
2015-04-23 20:00,5.7,114.40,1.56,0.83,35.00
2015-04-23 21:00,5.0,117.40,1.39,0.80,33.00
2015-04-23 22:00,5.4,115.40,1.70,0.83,32.00
2015-04-23 23:00,5.6,112.40,1.35,0.89,32.00
2015-04-24 00:00,5.3,110.40,1.37,0.90,34.00
2015-04-24 01:00,5.6,108.40,1.40,0.87,34.00
2015-04-24 02:00,7.7,109.40,1.53,0.83,33.00
2015-04-24 03:00,5.6,108.40,1.37,0.86,33.00
2015-04-24 04:00,7.1,106.40,1.52,0.84,36.00
2015-04-24 05:00,5.7,109.40,1.17,0.79,36.00
2015-04-24 06:00,5.6,108.40,1.28,0.76,33.00
2015-04-24 07:00,6.7,112.40,1.17,0.73,34.00
2015-04-24 08:00,7.7,113.40,1.10,0.67,33.00
2015-04-24 09:00,7.7,109.40,1.13,0.73,34.00
2015-04-24 10:00,7.4,109.40,1.14,0.74,37.00
2015-04-24 11:00,7.7,106.40,1.12,0.69,34.00
2015-04-24 12:00,7.4,110.40,1.11,0.69,35.00
2015-04-24 13:00,15.4,107.40,1.12,0.76,32.00
2015-04-24 14:00,7.1,106.40,0.95,0.65,36.00
2015-04-24 15:00,7.4,107.40,1.16,0.70,34.00
2015-04-24 16:00,7.4,110.40,1.06,0.71,36.00
2015-04-24 17:00,7.4,113.40,1.11,0.69,38.00
2015-04-24 18:00,7.7,117.40,1.15,0.69,37.00
2015-04-24 19:00,5.6,117.40,1.08,0.65,38.00
2015-04-24 20:00,7.7,124.40,1.26,0.66,42.00
2015-04-24 21:00,4.4,125.40,1.15,0.68,38.00
2015-04-24 22:00,5.1,125.40,1.09,0.72,38.00
2015-04-24 23:00,4.8,123.40,1.13,0.66,39.00
2015-04-25 00:00,5.6,123.40,1.01,0.70,39.00
2015-04-25 01:00,15.4,120.40,1.39,0.74,38.00
2015-04-25 02:00,5.3,120.40,1.03,0.68,37.00
2015-04-25 03:00,14.3,118.40,1.01,0.71,35.00
2015-04-25 04:00,15.4,118.40,1.17,0.67,37.00
2015-04-25 05:00,15.4,123.40,1.15,0.67,36.00
2015-04-25 06:00,7.7,124.40,1.03,0.65,40.00
2015-04-25 07:00,5.7,126.40,1.21,0.61,40.00
2015-04-25 08:00,5.9,119.40,1.00,0.55,43.00
2015-04-25 09:00,7.1,124.40,0.84,0.56,43.00
2015-04-25 10:00,7.4,120.40,0.92,0.55,41.00
2015-04-25 11:00,7.4,119.40,0.96,0.58,40.00
2015-04-25 12:00,14.3,119.40,0.77,0.54,39.00
2015-04-25 13:00,5.0,123.40,0.84,0.56,40.00
2015-04-25 14:00,5.3,116.40,0.89,0.53,38.00
2015-04-25 15:00,7.7,116.40,0.90,0.57,34.00
2015-04-25 16:00,7.7,121.40,1.04,0.57,36.00
2015-04-25 17:00,14.3,127.40,0.92,0.54,41.00
2015-04-25 18:00,5.3,125.40,0.85,0.55,43.00
2015-04-25 19:00,5.1,122.40,0.80,0.54,42.00
2015-04-25 20:00,7.7,124.40,1.10,0.55,41.00
2015-04-25 21:00,7.7,123.40,1.06,0.63,40.00
2015-04-25 22:00,8.0,135.40,0.90,0.56,40.00
2015-04-25 23:00,7.4,133.40,0.90,0.57,43.00
2015-04-26 00:00,7.1,136.40,0.99,0.60,41.00
2015-04-26 01:00,7.4,131.40,0.90,0.56,41.00
2015-04-26 02:00,7.4,130.40,1.14,0.60,39.00
2015-04-26 03:00,6.7,129.40,1.07,0.56,40.00
2015-04-26 04:00,7.4,128.40,0.89,0.53,41.00
2015-04-26 05:00,4.1,131.40,0.94,0.57,38.00
2015-04-26 06:00,7.7,136.40,0.82,0.53,41.00
2015-04-26 07:00,8.0,143.40,1.11,0.59,43.00
2015-04-26 08:00,4.4,143.40,0.86,0.56,41.00
2015-04-26 09:00,5.6,143.40,0.91,0.56,44.00
2015-04-26 10:00,8.0,137.40,1.02,0.62,40.00
2015-04-26 11:00,8.0,141.40,1.06,0.63,42.00
2015-04-26 12:00,28.6,147.40,0.91,0.59,46.00
2015-04-26 13:00,7.1,148.40,1.17,0.63,42.00
2015-04-26 14:00,8.0,144.40,1.13,0.60,42.00
2015-04-26 15:00,5.7,140.40,1.00,0.64,40.00
2015-04-26 16:00,28.6,146.40,1.02,0.63,43.00
2015-04-26 17:00,3.3,149.40,1.19,0.71,38.00
2015-04-26 18:00,28.6,142.40,1.41,0.74,43.00
2015-04-26 19:00,3.5,153.40,1.84,0.96,39.00
2015-04-26 20:00,4.3,154.40,1.60,0.89,40.00
2015-04-26 21:00,4.3,164.40,1.45,0.89,42.00
2015-04-26 22:00,4.3,164.40,1.47,0.90,42.00
2015-04-26 23:00,4.9,164.40,1.51,0.85,44.00
2015-04-27 00:00,4.7,165.40,1.30,0.81,44.00
2015-04-27 01:00,4.4,165.40,1.46,0.80,41.00
2015-04-27 02:00,4.8,160.40,1.17,0.76,42.00
2015-04-27 03:00,6.9,161.40,1.14,0.74,43.00
2015-04-27 04:00,5.3,159.40,1.46,0.73,43.00
2015-04-27 05:00,5.3,153.40,1.04,0.72,39.00
2015-04-27 06:00,4.9,151.40,1.29,0.72,42.00
2015-04-27 07:00,4.3,153.40,1.19,0.73,40.00
2015-04-27 08:00,4.9,153.40,1.16,0.67,44.00
2015-04-27 09:00,7.7,150.40,1.45,0.73,42.00
2015-04-27 10:00,4.8,151.40,1.09,0.66,45.00
2015-04-27 11:00,6.5,153.40,1.16,0.74,44.00
2015-04-27 12:00,6.1,153.40,1.15,0.68,44.00
2015-04-27 13:00,7.4,147.40,1.29,0.70,42.00
2015-04-27 14:00,3.1,147.40,1.21,0.73,40.00
2015-04-27 15:00,3.4,143.40,1.26,0.72,43.00
2015-04-27 16:00,28.6,138.40,1.57,0.77,40.00
2015-04-27 17:00,4.1,142.40,1.33,0.82,40.00
2015-04-27 18:00,4.1,145.40,1.38,0.86,37.00
2015-04-27 19:00,4.3,149.40,1.45,0.85,38.00
2015-04-27 20:00,3.8,146.40,1.64,0.87,36.00
2015-04-27 21:00,4.4,146.40,1.47,0.82,40.00
2015-04-27 22:00,4.3,150.40,1.21,0.74,43.00
2015-04-27 23:00,4.9,144.40,1.24,0.76,41.00
2015-04-28 00:00,4.9,150.40,1.25,0.81,40.00
2015-04-28 01:00,4.7,152.40,1.59,0.80,40.00
2015-04-28 02:00,5.0,152.40,1.31,0.76,44.00
2015-04-28 03:00,6.7,147.40,1.09,0.69,44.00
2015-04-28 04:00,4.8,155.40,1.19,0.74,44.00
2015-04-28 05:00,5.0,149.40,1.20,0.75,40.00
2015-04-28 06:00,4.8,144.40,1.22,0.75,40.00
2015-04-28 07:00,5.0,148.40,1.26,0.71,43.00
2015-04-28 08:00,5.4,149.40,1.26,0.73,42.00
2015-04-28 09:00,6.5,149.40,1.06,0.70,44.00
2015-04-28 10:00,5.9,153.40,1.17,0.78,40.00
2015-04-28 11:00,28.6,155.40,1.25,0.80,42.00
2015-04-28 12:00,7.4,148.40,1.35,0.86,40.00
2015-04-28 13:00,6.7,151.40,1.42,0.86,39.00
2015-04-28 14:00,4.3,151.40,1.37,0.85,40.00
2015-04-28 15:00,4.4,148.40,1.39,0.85,41.00
2015-04-28 16:00,4.7,148.40,1.43,0.85,43.00
2015-04-28 17:00,5.0,151.40,1.33,0.87,42.00
2015-04-28 18:00,6.5,152.40,1.20,0.91,40.00
2015-04-28 19:00,4.8,146.40,1.43,0.92,41.00
2015-04-28 20:00,5.0,155.40,1.63,0.91,41.00
2015-04-28 21:00,5.3,155.40,1.78,0.88,42.00
2015-04-28 22:00,5.1,150.40,1.72,0.92,42.00
2015-04-28 23:00,6.7,160.40,1.42,0.95,43.00
2015-04-29 00:00,4.8,159.40,1.73,0.94,43.00
2015-04-29 01:00,5.3,158.40,1.79,0.96,42.00
2015-04-29 02:00,6.5,156.40,1.53,0.89,42.00
2015-04-29 03:00,5.0,154.40,1.40,0.88,43.00
2015-04-29 04:00,5.9,156.40,1.39,0.87,44.00
2015-04-29 05:00,5.3,154.40,1.34,0.90,44.00
2015-04-29 06:00,6.7,152.40,1.39,0.87,44.00
2015-04-29 07:00,6.5,156.40,1.52,0.88,42.00
2015-04-29 08:00,6.1,154.40,1.57,0.83,44.00
2015-04-29 09:00,6.1,157.40,1.59,0.82,43.00
2015-04-29 10:00,5.3,153.40,1.41,0.82,41.00
2015-04-29 11:00,5.1,153.40,1.36,0.85,39.00
2015-04-29 12:00,6.7,150.40,1.37,0.89,41.00
2015-04-29 13:00,4.1,152.40,1.41,0.95,38.00
2015-04-29 14:00,4.5,153.40,1.53,0.99,38.00
2015-04-29 15:00,4.5,151.40,1.73,1.03,37.00
2015-04-29 16:00,4.9,156.40,1.62,1.09,37.00
2015-04-29 17:00,4.3,149.40,1.87,1.09,37.00
2015-04-29 18:00,4.4,148.40,1.86,1.19,37.00
2015-04-29 19:00,5.0,147.40,1.80,1.14,41.00
2015-04-29 20:00,5.4,148.40,2.05,1.21,35.00
2015-04-29 21:00,5.6,153.40,1.94,1.11,41.00
2015-04-29 22:00,5.1,153.40,1.60,1.08,41.00
2015-04-29 23:00,5.0,157.40,1.91,1.06,43.00
2015-04-30 00:00,5.4,153.40,1.56,1.06,40.00
2015-04-30 01:00,5.4,153.40,1.56,1.06,39.00
2015-04-30 02:00,5.1,159.40,2.18,1.05,39.00
2015-04-30 03:00,6.3,155.40,1.70,1.07,38.00
2015-04-30 04:00,6.3,154.40,1.82,1.00,43.00
2015-04-30 05:00,4.5,151.40,1.72,1.00,42.00
2015-04-30 06:00,4.7,149.40,1.60,0.99,41.00
2015-04-30 07:00,5.3,150.40,1.49,0.98,40.00
2015-04-30 08:00,5.3,153.40,1.61,0.93,41.00
2015-04-30 09:00,4.4,151.40,1.72,0.93,43.00
2015-04-30 10:00,5.9,151.40,1.35,0.87,41.00
2015-04-30 11:00,3.9,148.40,1.50,0.88,41.00
2015-04-30 12:00,4.3,153.40,1.39,0.90,41.00
2015-04-30 13:00,5.3,153.40,1.52,0.91,41.00
2015-04-30 14:00,6.9,153.40,1.38,0.93,41.00
2015-04-30 15:00,4.8,157.40,1.60,0.98,42.00
2015-04-30 16:00,4.7,157.40,1.82,1.06,39.00
2015-04-30 17:00,4.8,153.40,1.66,1.09,39.00
2015-04-30 18:00,4.7,153.40,1.92,1.02,42.00
2015-04-30 19:00,5.1,157.40,1.79,1.10,40.00
2015-04-30 20:00,4.8,154.40,1.78,1.13,42.00
2015-04-30 21:00,5.1,155.40,1.92,1.05,44.00
2015-04-30 22:00,4.9,152.40,2.00,1.16,42.00
2015-04-30 23:00,5.1,153.40,1.45,1.01,45.00
2015-05-01 00:00,5.4,150.40,1.62,0.97,45.00
2015-05-01 01:00,5.4,149.40,1.39,0.99,42.00
2015-05-01 02:00,5.9,147.40,1.63,0.96,43.00
2015-05-01 03:00,6.3,147.40,1.49,0.93,43.00
2015-05-01 04:00,5.4,144.40,1.28,0.87,43.00
2015-05-01 05:00,5.4,138.40,1.34,0.82,44.00
2015-05-01 06:00,5.7,136.40,1.32,0.78,45.00
2015-05-01 07:00,5.6,131.40,1.22,0.79,44.00
2015-05-01 08:00,5.6,140.40,1.44,0.80,44.00
2015-05-01 09:00,5.0,138.40,1.27,0.76,46.00
2015-05-01 10:00,5.3,139.40,1.08,0.73,45.00
2015-05-01 11:00,3.5,137.40,1.16,0.72,44.00
2015-05-01 12:00,4.9,127.40,1.30,0.79,42.00
2015-05-01 13:00,4.0,130.40,1.48,0.88,39.00
2015-05-01 14:00,6.9,130.40,1.44,0.91,41.00
2015-05-01 15:00,5.3,134.40,1.47,0.91,43.00
2015-05-01 16:00,4.8,134.40,1.70,0.92,43.00
2015-05-01 17:00,5.0,133.40,1.69,0.95,45.00
2015-05-01 18:00,4.8,127.40,1.79,0.99,42.00
2015-05-01 19:00,5.6,128.40,1.74,0.97,41.00
2015-05-01 20:00,5.4,127.40,1.87,0.88,42.00
2015-05-01 21:00,5.0,125.40,1.46,0.89,43.00
2015-05-01 22:00,5.4,125.40,1.54,0.91,42.00
2015-05-01 23:00,5.6,128.40,1.61,0.83,42.00
2015-05-02 00:00,5.9,128.40,1.43,0.94,40.00
2015-05-02 01:00,5.7,131.40,1.43,0.89,40.00
2015-05-02 02:00,5.7,132.40,1.80,0.84,41.00
2015-05-02 03:00,5.7,128.40,1.35,0.85,41.00
2015-05-02 04:00,5.7,128.40,1.35,0.86,39.00
2015-05-02 05:00,5.7,122.40,1.70,0.90,38.00
2015-05-02 06:00,5.6,119.40,1.55,0.95,38.00
2015-05-02 07:00,5.1,117.40,1.51,1.02,36.00
2015-05-02 08:00,5.3,116.40,1.61,1.00,36.00
2015-05-02 09:00,5.3,114.40,1.66,1.09,35.00
2015-05-02 10:00,5.7,113.40,1.83,1.12,35.00
2015-05-02 11:00,5.7,116.40,1.82,1.19,37.00
2015-05-02 12:00,5.7,120.40,1.74,1.14,37.00
2015-05-02 13:00,6.1,123.40,1.66,1.10,37.00
2015-05-02 14:00,5.9,126.40,1.79,1.16,34.00
2015-05-02 15:00,5.4,124.40,1.77,1.19,34.00
2015-05-02 16:00,5.7,129.40,1.88,1.15,37.00
2015-05-02 17:00,6.1,127.40,1.81,1.13,38.00
2015-05-02 18:00,6.3,124.40,2.45,1.22,31.00
2015-05-02 19:00,5.9,130.40,2.52,1.15,36.00
2015-05-02 20:00,6.1,129.40,2.01,1.24,36.00
2015-05-02 21:00,6.1,123.40,2.20,1.13,39.00
2015-05-02 22:00,6.3,123.40,1.90,1.08,34.00
2015-05-02 23:00,6.5,124.40,1.96,1.07,37.00
2015-05-03 00:00,6.3,125.40,1.74,1.07,36.00
2015-05-03 01:00,5.6,128.40,1.75,1.02,35.00
2015-05-03 02:00,6.1,130.40,1.76,0.97,37.00
2015-05-03 03:00,6.1,129.40,1.31,0.84,39.00
2015-05-03 04:00,5.7,131.40,1.33,0.88,38.00
2015-05-03 05:00,6.3,126.40,1.31,0.85,36.00
2015-05-03 06:00,5.6,129.40,1.35,0.78,38.00
2015-05-03 07:00,6.1,128.40,1.13,0.77,41.00
2015-05-03 08:00,5.9,128.40,1.37,0.80,38.00
2015-05-03 09:00,5.7,121.40,1.26,0.86,40.00
2015-05-03 10:00,5.9,120.40,1.37,0.90,39.00
2015-05-03 11:00,6.1,121.40,1.58,0.98,36.00
2015-05-03 12:00,6.1,117.40,1.72,1.04,34.00
2015-05-03 13:00,5.6,122.40,1.95,1.11,33.00
2015-05-03 14:00,5.6,124.40,1.64,1.05,37.00
2015-05-03 15:00,5.6,125.40,1.80,1.11,35.00
2015-05-03 16:00,5.0,124.40,1.74,1.10,33.00
2015-05-03 17:00,5.3,124.40,2.17,1.07,33.00
2015-05-03 18:00,5.3,128.40,1.85,1.08,37.00
2015-05-03 19:00,5.7,124.40,2.04,1.09,38.00
2015-05-03 20:00,6.1,123.40,1.89,1.03,36.00
2015-05-03 21:00,5.4,123.40,1.41,0.97,36.00
2015-05-03 22:00,5.3,121.40,1.44,0.97,36.00
2015-05-03 23:00,5.6,121.40,1.59,0.98,34.00
2015-05-04 00:00,5.9,126.40,1.58,1.00,36.00
2015-05-04 01:00,5.7,128.40,1.88,0.96,37.00
2015-05-04 02:00,5.6,129.40,1.55,0.92,37.00
2015-05-04 03:00,5.4,123.40,1.62,0.88,37.00
2015-05-04 04:00,5.7,122.40,1.58,0.84,38.00
2015-05-04 05:00,5.4,125.40,1.45,0.85,37.00
2015-05-04 06:00,5.7,119.40,1.40,0.89,35.00
2015-05-04 07:00,5.3,118.40,1.33,0.87,37.00
2015-05-04 08:00,5.0,117.40,1.40,0.93,35.00
2015-05-04 09:00,5.6,120.40,1.57,1.00,35.00
2015-05-04 10:00,5.7,116.40,1.88,1.04,32.00
2015-05-04 11:00,5.6,113.40,1.69,1.06,35.00
2015-05-04 12:00,5.6,114.40,1.73,1.09,33.00
2015-05-04 13:00,5.7,120.40,1.82,1.12,32.00
2015-05-04 14:00,6.1,116.40,1.74,1.09,32.00
2015-05-04 15:00,5.9,120.40,1.74,1.13,33.00
2015-05-04 16:00,5.9,116.40,1.79,1.15,34.00
2015-05-04 17:00,6.3,119.40,2.35,1.20,32.00
2015-05-04 18:00,5.9,115.40,1.91,1.17,33.00
2015-05-04 19:00,6.1,120.40,2.35,1.32,29.00
2015-05-04 20:00,6.1,121.40,2.07,1.28,31.00
2015-05-04 21:00,6.5,123.40,2.31,1.22,33.00
2015-05-04 22:00,6.1,118.40,2.21,1.19,34.00
2015-05-04 23:00,5.3,114.40,2.46,1.40,33.00
2015-05-05 00:00,5.7,117.40,2.31,1.31,32.00
2015-05-05 01:00,6.1,116.40,2.62,1.38,30.00
2015-05-05 02:00,5.6,118.40,2.38,1.42,33.00
2015-05-05 03:00,6.1,112.40,2.50,1.39,33.00
2015-05-05 04:00,5.9,116.40,2.26,1.39,32.00
2015-05-05 05:00,5.9,114.40,2.40,1.43,30.00
2015-05-05 06:00,6.3,118.40,2.26,1.41,30.00
2015-05-05 07:00,6.1,116.40,2.20,1.45,31.00
2015-05-05 08:00,6.1,117.40,2.47,1.53,28.00
2015-05-05 09:00,6.1,114.40,2.50,1.43,30.00
2015-05-05 10:00,6.3,117.40,2.40,1.56,31.00
2015-05-05 11:00,6.5,116.40,2.63,1.56,28.00
2015-05-05 12:00,6.3,115.40,2.46,1.51,30.00
2015-05-05 13:00,6.3,117.40,2.51,1.67,29.00
2015-05-05 14:00,6.7,116.40,2.58,1.44,30.00
2015-05-05 15:00,6.7,117.40,2.29,1.47,29.00
2015-05-05 16:00,6.5,110.40,2.31,1.45,32.00
2015-05-05 17:00,6.5,115.40,2.53,1.41,30.00
2015-05-05 18:00,6.5,116.40,2.36,1.54,30.00
2015-05-05 19:00,5.9,112.40,2.50,1.29,34.00
2015-05-05 20:00,6.7,117.40,2.45,1.44,29.00
2015-05-05 21:00,6.7,113.40,2.20,1.33,31.00
2015-05-05 22:00,6.3,117.40,1.99,1.29,31.00
2015-05-05 23:00,6.5,116.40,2.11,1.31,33.00
2015-05-06 00:00,6.9,114.40,2.09,1.28,32.00
2015-05-06 01:00,6.5,116.40,2.05,1.32,31.00
2015-05-06 02:00,6.7,112.40,2.17,1.42,31.00
2015-05-06 03:00,5.9,116.40,2.20,1.48,32.00
2015-05-06 04:00,6.7,117.40,2.28,1.43,32.00
2015-05-06 05:00,6.9,117.40,2.19,1.38,33.00
2015-05-06 06:00,6.9,118.40,1.96,1.30,31.00
2015-05-06 07:00,5.7,116.40,3.21,1.41,33.00
2015-05-06 08:00,6.5,119.40,2.61,1.50,28.00
2015-05-06 09:00,6.9,117.40,2.32,1.42,32.00
2015-05-06 10:00,6.7,117.40,2.30,1.50,31.00
2015-05-06 11:00,6.7,114.40,2.29,1.48,33.00
2015-05-06 12:00,6.7,115.40,2.90,1.63,30.00
2015-05-06 13:00,6.5,116.40,2.62,1.67,31.00
2015-05-06 14:00,6.5,118.40,2.40,1.63,31.00
2015-05-06 15:00,6.1,117.40,2.62,1.47,31.00
2015-05-06 16:00,6.9,115.40,2.44,1.46,33.00
2015-05-06 17:00,6.9,117.40,2.41,1.37,31.00
2015-05-06 18:00,6.9,121.40,2.29,1.34,28.00
2015-05-06 19:00,6.5,122.40,2.48,1.44,29.00
2015-05-06 20:00,6.5,123.40,2.39,1.37,30.00
2015-05-06 21:00,6.7,120.40,2.31,1.47,28.00
2015-05-06 22:00,6.5,124.40,2.04,1.33,33.00
2015-05-06 23:00,6.9,121.40,2.76,1.46,31.00
2015-05-07 00:00,6.7,123.40,2.14,1.40,32.00
2015-05-07 01:00,6.7,119.40,2.36,1.53,31.00
2015-05-07 02:00,6.9,117.40,2.39,1.47,30.00
2015-05-07 03:00,7.4,124.40,2.66,1.57,30.00
2015-05-07 04:00,6.9,119.40,2.17,1.53,29.00
2015-05-07 05:00,,166.40,,,
2015-05-07 06:00,6.7,118.40,2.26,1.40,31.00
2015-05-07 07:00,6.5,118.40,2.67,1.55,31.00
2015-05-07 08:00,6.9,115.40,2.46,1.55,31.00
2015-05-07 09:00,7.1,116.40,2.46,1.60,32.00
2015-05-07 10:00,6.7,119.40,2.60,1.65,30.00
2015-05-07 11:00,8.0,116.40,3.53,1.63,31.00
2015-05-07 12:00,7.4,118.40,3.14,1.67,32.00
2015-05-07 13:00,6.5,118.40,2.77,1.73,30.00
2015-05-07 14:00,6.1,115.40,2.75,1.57,32.00
2015-05-07 15:00,7.4,120.40,3.23,1.73,28.00
2015-05-07 16:00,6.9,121.40,2.86,1.59,28.00
2015-05-07 17:00,8.0,121.40,2.71,1.46,31.00
2015-05-07 18:00,7.1,120.40,2.00,1.43,31.00
2015-05-07 19:00,6.7,121.40,2.25,1.45,33.00
2015-05-07 20:00,6.5,116.40,2.27,1.42,32.00
2015-05-07 21:00,6.7,119.40,2.37,1.40,31.00
2015-05-07 22:00,8.0,116.40,2.52,1.31,33.00
2015-05-07 23:00,8.0,113.40,1.97,1.24,33.00
2015-05-08 00:00,6.9,113.40,1.91,1.24,34.00
2015-05-08 01:00,5.9,110.40,2.05,1.17,34.00
2015-05-08 02:00,8.7,111.40,2.08,1.21,31.00
2015-05-08 03:00,6.5,110.40,2.07,1.20,32.00
2015-05-08 04:00,6.7,106.40,2.60,1.19,33.00
2015-05-08 05:00,6.3,107.40,2.13,1.24,32.00
2015-05-08 06:00,8.7,110.40,2.19,1.20,33.00
2015-05-08 07:00,8.3,109.40,2.17,1.25,31.00
2015-05-08 08:00,6.3,111.40,2.20,1.23,32.00
2015-05-08 09:00,6.3,116.40,2.24,1.31,32.00
2015-05-08 10:00,6.3,109.40,2.66,1.40,31.00
2015-05-08 11:00,8.0,115.40,2.01,1.36,33.00
2015-05-08 12:00,6.3,114.40,2.12,1.29,34.00
2015-05-08 13:00,6.7,118.40,2.14,1.29,33.00
2015-05-08 14:00,6.9,119.40,2.02,1.30,30.00